User: anonymous
Location: Unspecified
(0.0000°N, 0.0000°E)
Time: 13:48:21
(UTC+02:00)
Language:

Atlas Centaur 2 - Orbit

View from above orbital plane
View from above orbital plane
View from above satellite
View from above satellite

Ground track
Ground track

The orbit data is extracted from the following two-line orbital elements,

1 00694U 63047A   14272.29521071  .00003289  00000-0  43040-3 0  6085
2 00694 030.3549 215.7082 0597026 075.9507 046.9078 13.99877871543480
Epoch (UTC): 29 September 2014 07:05:06
Eccentricity: 0.0597026
inclination: 30.3549°
perigee height: 460 km
apogee height: 1328 km
right ascension of ascending node: 215.7082°
argument of perigee: 75.9507°
revolutions per day: 13.99877871
mean anomaly at epoch: 46.9078°
orbit number at epoch: 54348

The dashed part of the orbit path shows where the satellite is in the earth's shadow,  

DLR